Flag for Germany Weather past 2 weeks in Wittlich, Rhineland-Palatinate, Germany

Now
45 °F

Light rain. Low clouds.


Feels Like: 37 °F
Forecast: 41 / 48 °F
Wind: 16 mph from Southwest

Location: Spangdahlem

Current Time: Dec 23, 2014 at 12:31:18 AM

Latest Report: Dec 22, 2014 at 11:58 PM


Visibility: N/A

Pressure: 30.20 "Hg

Humidity: 100%

Dew point: 45 °F

Location of WittlichLocation

Historic Weather in Wittlich — Graph

°F

Wittlich temperature yesterday

Maximum temperature yesterday: 45 °F (at 8:58 PM)
Minimum temperature yesterday: 41 °F (at 4:58 AM)
Average temperature yesterday: 42 °F

Past Weeks' High & Low Weather Summary

 TemperatureHumidityPressure
High52 °F (Dec 18, 5:58 PM)100% (Dec 7, 10:01 PM)30.47 "Hg (Dec 7, 10:01 PM)
Low30 °F (Dec 15, 7:58 AM)81% (Dec 14, 1:58 PM)29.54 "Hg (Dec 12, 5:58 PM)
Average39 °F94%30.04 "Hg
* Reported Dec 7 10:01 PM — Dec 22 10:58 PM, Wittlich, Weather by CustomWeather, © 2014

Note: Actual official high and low records may vary slightly from our data, if they occured in-between our weather recording intervals... More about our weather records

Advertising

Wittlich weather history for previous 24 hours

 ConditionsComfort  
Time TempWeatherWind HumidityBarometerVisibility
10:58 PM
Dec 22
44 °FDrizzle. Low clouds.14 mph98%30.20 "HgN/A
10:03 PM45 °FDrizzle. Low clouds.16 mph93%30.21 "HgN/A
9:58 PM44 °FDrizzle. Low clouds.17 mph98%30.21 "HgN/A
9:01 PM45 °FLight rain. Fog.14 mph93%30.21 "Hg4 mi
8:58 PM45 °FLight rain. Fog.15 mph93%30.21 "Hg4 mi
7:58 PM44 °FLow clouds.16 mph97%30.22 "HgN/A
3:58 PM43 °FDrizzle. Fog.18 mph97%30.21 "Hg5 mi
2:58 PM42 °FLight rain. Fog.16 mph97%30.21 "Hg2 mi
1:58 PM42 °FLight rain. Fog.20 mph96%30.23 "Hg2 mi
12:58 PM42 °FLight rain. Fog.18 mph94%30.25 "Hg2 mi
12:53 PM41 °FDrizzle. Low clouds.16 mph100%30.25 "HgN/A
11:58 AM41 °FLow clouds.22 mph93%30.27 "HgN/A
11:03 AM41 °FLow clouds.21 mph93%30.28 "HgN/A
10:58 AM41 °FDrizzle. Low clouds.20 mph94%30.28 "HgN/A
9:58 AM41 °FLow clouds.21 mph94%30.27 "HgN/A
8:58 AM41 °FLow clouds.17 mph94%30.27 "HgN/A
7:58 AM41 °FLow clouds.21 mph95%30.26 "HgN/A
7:02 AM41 °FLow clouds.16 mph93%30.26 "HgN/A
6:58 AM41 °FLow clouds.18 mph95%30.27 "HgN/A
6:04 AM41 °FLow clouds.16 mph93%30.25 "HgN/A
5:58 AM41 °FDrizzle. Low clouds.20 mph93%30.26 "HgN/A
4:58 AM41 °FDrizzle. Low clouds.16 mph96%30.28 "HgN/A
3:58 AM41 °FLow clouds.17 mph91%30.29 "HgN/A
2:58 AM41 °FOvercast.18 mph89%30.30 "HgN/A
1:58 AM41 °FLow clouds.17 mph93%30.31 "HgN/A
12:58 AM41 °FLow clouds.21 mph93%30.32 "HgN/A
Weather by CustomWeather, © 2014

See weather overviewHow to use our weather pages